Location: Izdebno
(52.6670°N, 16.2170°E)
Time: 13:08:13
(UTC+02:00)

Vanguard 2 - Pass Details

Date: 02 February 2023
Orbit: 553 x 2927 km, 32.9° (Epoch: 26 March)

Event Time Altitude Azimuth Distance (km) Brightness Sun altitude
Rises 19:35:11 0° 179° (S) 5,356 11.8 -26.3°
Reaches altitude 10° 19:41:49 10° 153° (SSE) 4,903 11.3 -27.3°
Enters shadow 19:42:31 11° 151° (SSE) 4,895 11.3 -27.4°
Maximum altitude 19:46:49 13° 133° (SE) 5,011 - -28.0°
Drops below altitude 10° 19:52:16 10° 113° (ESE) 5,503 - -28.8°
Sets 20:00:58 0° 90° (E) 6,762 - -30.1°
